This is the latest recevied weather packets stored in our database for station/object DB0FN-10. If no packets are shown the sender has not sent any weather packets the latest 10 day(s).
| Time | Temp. | Humidity | Pressure | Rain* | Wind** | Luminosity | Snow |
|---|---|---|---|---|---|---|---|
| 1787591813 | 24.44° C | 43% | 1018.1 hPa | - | - | - | - |
| 1787590913 | 24.44° C | 43% | 1018 hPa | - | - | - | - |
| 1787590013 | 25° C | 42% | 1018.4 hPa | - | - | - | - |
| 1787589113 | 25° C | 42% | 1018.7 hPa | - | - | - | - |
| 1787588213 | 25° C | 40% | 1019 hPa | - | - | - | - |
| 1787587313 | 26.11° C | 40% | 1019.2 hPa | - | - | - | - |
| 1787586413 | 25.56° C | 39% | 1019.2 hPa | - | - | - | - |
| 1787585513 | 26.11° C | 38% | 1019.8 hPa | - | - | - | - |
| 1787584612 | 26.11° C | 40% | 1019.9 hPa | - | - | - | - |
| 1787583712 | 26.11° C | 39% | 1020 hPa | - | - | - | - |
| 1787582812 | 26.67° C | 39% | 1020.1 hPa | - | - | - | - |
| 1787581912 | 27.22° C | 38% | 1020.4 hPa | - | - | - | - |
| 1787581012 | 26.11° C | 40% | 1020.6 hPa | - | - | - | - |
| 1787580112 | 26.67° C | 40% | 1020.8 hPa | - | - | - | - |
| 1787579212 | 26.67° C | 39% | 1021.1 hPa | - | - | - | - |
| 1787578312 | 26.67° C | 38% | 1021.2 hPa | - | - | - | - |
| 1787577412 | 26.67° C | 39% | 1021.2 hPa | - | - | - | - |
| 1787576512 | 26.67° C | 40% | 1021.4 hPa | - | - | - | - |
| 1787575612 | 26.11° C | 42% | 1021.7 hPa | - | - | - | - |
| 1787574712 | 26.67° C | 40% | 1022 hPa | - | - | - | - |
| 1787573812 | 26.67° C | 38% | 1022 hPa | - | - | - | - |
| 1787572912 | 26.67° C | 40% | 1022 hPa | - | - | - | - |
| 1787572011 | 26.67° C | 39% | 1022.4 hPa | - | - | - | - |
| 1787571111 | 26.11° C | 40% | 1022.4 hPa | - | - | - | - |
| 1787570211 | 26.11° C | 42% | 1022.5 hPa | - | - | - | - |
* Rain since midnight (hover to see other rain measurements)
** Current wind speed in m/s (hover to see current wind gust speed)